TimeCDT,TemperatureF,Dew PointF,Humidity,Sea Level PressureIn,VisibilityMPH,Wind Direction,Wind SpeedMPH,Gust SpeedMPH,PrecipitationIn,Events,Conditions,WindDirDegrees,DateUTC
12:53 AM,73.9,72.0,93,29.96,8.0,Calm,Calm,-,N/A,,Clear,0,2013-09-15 05:53:00
1:53 AM,73.0,71.1,93,29.97,8.0,Calm,Calm,-,N/A,,Clear,0,2013-09-15 06:53:00
2:53 AM,73.9,71.1,91,29.96,8.0,NE,3.5,-,N/A,,Mostly Cloudy,40,2013-09-15 07:53:00
3:53 AM,73.0,70.0,90,29.96,8.0,NE,4.6,-,N/A,,Clear,40,2013-09-15 08:53:00
4:53 AM,72.0,70.0,93,29.97,8.0,NE,4.6,-,N/A,,Clear,50,2013-09-15 09:53:00
5:53 AM,71.1,69.1,93,29.99,10.0,Calm,Calm,-,N/A,,Clear,0,2013-09-15 10:53:00
6:53 AM,71.1,66.9,87,30.01,10.0,NE,3.5,-,N/A,,Clear,50,2013-09-15 11:53:00
7:53 AM,72.0,66.0,81,30.02,10.0,ENE,5.8,-,N/A,,Clear,70,2013-09-15 12:53:00
8:53 AM,75.9,66.9,74,30.03,10.0,ENE,9.2,-,N/A,,Clear,70,2013-09-15 13:53:00
9:53 AM,81.0,69.1,67,30.05,10.0,East,4.6,-,N/A,,Clear,90,2013-09-15 14:53:00
10:53 AM,84.9,72.0,65,30.04,10.0,ESE,6.9,-,N/A,,Partly Cloudy,120,2013-09-15 15:53:00
11:53 AM,87.1,72.0,61,30.04,10.0,East,6.9,-,N/A,,Partly Cloudy,90,2013-09-15 16:53:00
12:53 PM,89.1,71.1,55,30.03,10.0,Variable,4.6,-,N/A,,Scattered Clouds,0,2013-09-15 17:53:00
1:53 PM,90.0,69.1,50,30.02,10.0,ESE,6.9,-,N/A,,Scattered Clouds,110,2013-09-15 18:53:00
2:53 PM,90.0,66.0,45,30.00,10.0,Variable,3.5,-,N/A,,Partly Cloudy,0,2013-09-15 19:53:00
3:53 PM,91.9,66.9,44,29.98,10.0,Calm,Calm,-,N/A,,Clear,0,2013-09-15 20:53:00
4:53 PM,91.9,66.0,42,29.97,10.0,Calm,Calm,-,N/A,,Clear,0,2013-09-15 21:53:00
5:53 PM,90.0,66.0,45,29.97,10.0,ESE,4.6,-,N/A,,Clear,110,2013-09-15 22:53:00
6:53 PM,84.9,66.0,53,29.99,10.0,ESE,5.8,-,N/A,,Clear,110,2013-09-15 23:53:00
7:53 PM,82.9,70.0,65,30.00,10.0,ESE,6.9,-,N/A,,Clear,110,2013-09-16 00:53:00
8:53 PM,81.0,72.0,74,30.02,10.0,East,4.6,-,N/A,,Clear,100,2013-09-16 01:53:00
9:53 PM,78.1,73.0,84,30.04,10.0,East,4.6,-,N/A,,Clear,100,2013-09-16 02:53:00
10:53 PM,77.0,73.0,88,30.04,10.0,East,4.6,-,N/A,,Clear,90,2013-09-16 03:53:00
11:53 PM,75.9,73.0,91,30.05,10.0,Calm,Calm,-,N/A,,Clear,0,2013-09-16 04:53:00